Hourly Data Report for October 03, 2016

All times are specified in Local Standard Time (LST). Add 1 hour to adjust for Daylight Saving Time where and when it is observed.

RANKIN INLET A
NUNAVUT

62°48'38.000" N
92°06'53.000" W
32.30 m
2303405
71083
YRT

Download Data

Hourly Data (October 2016)
Hourly Data Report for October 3, 2016
Temp Definition
°C
Dew Point Temp Definition
°C
Rel Hum Definition
%
Wind Dir Definition
10's deg

Wind Spd Definition
km/h
Visibility Definition
km
Stn Press Definition
kPa
Hmdx Definition


Wind Chill Definition


Weather Definition


TIME
00:00 Legend Double Dagger 2.6 1.3 91 15 43 12.9 101.01     Snow
01:00 Legend Double Dagger 2.1 1.1 93 14 41 9.7 100.83     Snow
02:00 Legend Double Dagger 2.1 1.4 95 14 38 12.9 100.65     Snow
03:00 Legend Double Dagger 2.0 1.3 95 15 44 12.9 100.44     Snow
04:00 Legend Double Dagger 3.3 2.4 94 12 51 12.9 100.23     Snow
05:00 Legend Double Dagger 3.9 3.5 97 15 44 9.7 99.98     Rain
06:00 Legend Double Dagger 4.3 4.0 98 16 39 6.4 99.80     Rain,Fog
07:00 Legend Double Dagger 4.7 4.4 98 17 32 3.2 99.65     Rain,Fog
08:00 Legend Double Dagger 5.0 4.9 99 18 31 0.4 99.52     Fog
09:00 Legend Double Dagger 5.3 5.2 99 20 28 0.2 99.42     Fog
10:00 Legend Double Dagger 5.0 4.7 98 23 29 6.4 99.34     Fog
11:00 Legend Double Dagger 5.7 4.4 91 24 23 16.1 99.26     LegendNANA
12:00 Legend Double Dagger 4.8 4.1 95 26 25 4.8 99.23     Drizzle,Fog
13:00 Legend Double Dagger 4.5 3.5 93 25 30 12.9 99.19     Drizzle
14:00 Legend Double Dagger 4.8 3.3 90 25 34 12.9 99.09     Drizzle
15:00 Legend Double Dagger 5.1 2.5 83 23 30 12.9 99.03     Mostly Cloudy
16:00 Legend Double Dagger 4.4 1.8 83 24 32 16.1 98.98     LegendNANA
17:00 Legend Double Dagger 3.4 1.0 84 24 37 12.9 98.97     Rain Showers
18:00 Legend Double Dagger 3.2 1.6 89 23 35 12.9 98.86     Mostly Cloudy
19:00 Legend Double Dagger 2.8 1.0 88 24 39 16.1 98.80     LegendNANA
20:00 Legend Double Dagger 2.5 1.8 95 25 30 24.1 98.76     LegendNANA
21:00 Legend Double Dagger 2.2 1.5 95 28 26 24.1 98.78     Mostly Cloudy
22:00 Legend Double Dagger 1.8 1.4 97 30 31 24.1 98.87     LegendNANA
23:00 Legend Double Dagger 1.7 1.1 96 31 36 16.1 99.02     LegendNANA

Notes on Data Quality.

Legend

  • E = Estimated
  • M = Missing
  • NA = Not Available
  • ‡ = Partner data that is not subject to review by the National Climate Archives
Date modified: